GW2092 Weather Reports


time (UTC)temp
F
wind
direction
speed
knots
gust
knots
rain 1hr
in
rain 24hr
in
rain mn
in
humidity
%
barometer
mb
20260905220045 101 0 0.0 0.9 0.00 0.00 0.00 36 1013.0
20260905214554 102 219 0.0 2.6 0.00 0.00 0.00 36 1013.0
20260905213049 103 77 0.0 5.2 0.00 0.00 0.00 36 1013.2
20260905211551 105 345 0.0 2.6 0.00 0.00 0.00 34 1013.3
20260905210052 105 210 0.0 1.7 0.00 0.00 0.00 34 1013.5
20260905204551 103 0 0.0 3.5 0.00 0.00 0.00 35 1013.7
20260905203054 104 207 0.0 2.6 0.00 0.00 0.00 34 1013.9
20260905201545 104 0 0.0 2.6 0.00 0.00 0.00 35 1014.3
20260905200046 103 161 0.9 6.1 0.00 0.00 0.00 36 1014.5
20260905194552 106 0 0.0 1.7 0.00 0.00 0.00 35 1014.6
20260905193105 102 65 0.0 2.6 0.00 0.00 0.00 37 1014.9
20260905191545 102 0 0.0 3.5 0.00 0.00 0.00 37 1015.1
20260905190055 103 82 0.0 3.5 0.00 0.00 0.00 38 1015.2
20260905184551 105 208 0.0 1.7 0.00 0.00 0.00 36 1015.3
20260905183059 103 141 0.0 2.6 0.00 0.00 0.00 36 1015.5
20260905181554 103 0 0.0 3.5 0.00 0.00 0.00 38 1015.8
20260905180049 100 312 0.0 1.7 0.00 0.00 0.00 40 1016.2
20260905174548 100 0 0.0 0.9 0.00 0.00 0.00 41 1016.3
20260905173055 101 82 0.0 1.7 0.00 0.00 0.00 40 1016.4
20260905171554 102 0 0.0 0.9 0.00 0.00 0.00 39 1016.6
20260905170046 102 0 0.0 0.9 0.00 0.00 0.00 42 1016.8
20260905164554 101 0 0.0 0.9 0.00 0.00 0.00 43 1016.8
20260905163056 99 0 0.0 2.6 0.00 0.00 0.00 45 1016.9
20260905161546 99 0 0.0 1.7 0.00 0.00 0.00 44 1017.1
20260905160055 98 0 0.0 2.6 0.00 0.00 0.00 46 1017.1
20260905154604 98 42 0.0 1.7 0.00 0.00 0.00 46 1017.0
20260905153052 97 191 0.0 2.6 0.00 0.00 0.00 48 1017.0
20260905151549 95 0 0.0 1.7 0.00 0.00 0.00 51 1017.0
20260905150108 93 0 0.0 1.7 0.00 0.00 0.00 54 1016.7
20260905144554 91 174 0.0 1.7 0.00 0.00 0.00 56 1016.7
20260905143052 90 0 0.0 2.6 0.00 0.00 0.00 58 1016.8
20260905141556 87 0 0.0 2.6 0.00 0.00 0.00 61 1016.8
20260905140058 86 202 0.0 0.9 0.00 0.00 0.00 64 1016.6
20260905134553 83 0 0.0 0.9 0.00 0.00 0.00 70 1016.6
20260905133045 80 0 0.0 0.9 0.00 0.00 0.00 74 1016.5
20260905131554 78 0 0.0 0.9 0.00 0.00 0.00 76 1016.4
20260905130050 76 0 0.0 0.0 0.00 0.00 0.00 79 1016.0
20260905124547 75 0 0.0 0.0 0.00 0.00 0.00 83 1016.0
20260905123048 73 0 0.0 0.0 0.00 0.00 0.00 84 1015.8
20260905121557 73 0 0.0 0.0 0.00 0.00 0.00 85 1016.0
20260905120046 72 0 0.0 0.0 0.00 0.00 0.00 85 1016.0
20260905114546 72 0 0.0 0.0 0.00 0.00 0.00 85 1015.8
20260905113104 72 0 0.0 0.0 0.00 0.00 0.00 84 1015.7
20260905111551 72 0 0.0 0.0 0.00 0.00 0.00 84 1015.6
20260905110046 72 0 0.0 0.0 0.00 0.00 0.00 84 1015.6
20260905104545 73 0 0.0 0.0 0.00 0.00 0.00 83 1015.6
20260905103059 73 0 0.0 0.0 0.00 0.00 0.00 82 1015.4
20260905101552 73 0 0.0 0.0 0.00 0.00 0.00 83 1015.5
20260905094545 73 0 0.0 0.0 0.00 0.00 0.00 81 1015.4
20260905093054 73 0 0.0 0.0 0.00 0.00 0.00 81 1015.4
20260905091546 74 0 0.0 0.0 0.00 0.00 0.00 80 1015.3
20260905090054 74 0 0.0 0.0 0.00 0.00 0.00 79 1015.3
20260905084556 74 0 0.0 0.0 0.00 0.00 0.00 79 1015.1
20260905083047 75 0 0.0 0.0 0.00 0.00 0.00 78 1015.1
20260905081557 76 0 0.0 0.0 0.00 0.00 0.00 77 1015.0
20260905080054 76 0 0.0 0.0 0.00 0.00 0.00 75 1015.1
20260905074554 77 0 0.0 0.0 0.00 0.00 0.00 73 1015.0
20260905073059 77 0 0.0 0.0 0.00 0.00 0.00 74 1015.1
20260905071557 78 0 0.0 0.0 0.00 0.00 0.00 73 1015.2
20260905070055 78 0 0.0 0.0 0.00 0.00 0.00 72 1015.2
20260905064554 79 0 0.0 0.0 0.00 0.00 0.00 70 1015.4
20260905063048 79 0 0.0 0.0 0.00 0.00 0.00 70 1015.3
20260905061607 79 0 0.0 0.0 0.00 0.00 0.00 71 1015.3
20260905060100 78 0 0.0 0.0 0.00 0.00 0.00 71 1015.0
20260905054554 79 0 0.0 0.0 0.00 0.00 0.00 71 1015.1
20260905053047 79 0 0.0 0.0 0.00 0.00 0.00 70 1015.3
20260905051545 79 0 0.0 0.0 0.00 0.00 0.00 70 1015.4
20260905050044 79 0 0.0 0.0 0.00 0.00 0.00 69 1015.4
20260905044549 80 0 0.0 0.0 0.00 0.00 0.00 68 1015.6
20260905043056 81 0 0.0 0.0 0.00 0.00 0.00 66 1015.5
20260905041544 82 0 0.0 0.0 0.00 0.00 0.00 64 1015.5
20260905040054 83 0 0.0 0.0 0.00 0.00 0.00 63 1015.5
20260905034551 83 0 0.0 0.0 0.00 0.00 0.00 63 1015.4
20260905033050 83 0 0.0 0.0 0.00 0.00 0.00 62 1015.3
20260905031549 83 0 0.0 0.0 0.00 0.00 0.00 61 1015.1
20260905024547 83 0 0.0 0.0 0.00 0.00 0.00 61 1014.7
20260905023056 83 0 0.0 0.0 0.00 0.00 0.00 60 1014.3
20260905021555 83 0 0.0 0.0 0.00 0.00 0.00 61 1014.1
20260905020103 83 0 0.0 0.0 0.00 0.00 0.00 59 1013.9
20260905014546 84 0 0.0 0.0 0.00 0.00 0.00 58 1013.8
20260905013108 85 0 0.0 0.0 0.00 0.00 0.00 56 1013.6
20260905011628 86 0 0.0 0.0 0.00 0.00 0.00 54 1013.6
20260905010049 88 0 0.0 0.0 0.00 0.00 0.00 52 1013.6
20260905004549 90 0 0.0 0.0 0.00 0.00 0.00 50 1013.5
20260905003053 92 0 0.0 0.0 0.00 0.00 0.00 46 1013.3
20260905001557 94 0 0.0 0.9 0.00 0.00 0.00 44 1013.3
20260905000047 95 0 0.0 0.9 0.00 0.00 0.00 43 1013.4
20260904234546 95 0 0.0 3.5 0.00 0.00 0.00 42 1013.4
20260904233053 96 0 0.0 3.5 0.00 0.00 0.00 41 1013.4
20260904231552 96 0 0.0 2.6 0.00 0.00 0.00 41 1013.4
20260904230048 98 193 0.9 4.3 0.00 0.00 0.00 39 1013.4
20260904224547 100 0 0.0 1.7 0.00 0.00 0.00 37 1013.4
20260904223053 99 0 0.0 4.3 0.00 0.00 0.00 38 1013.6
20260904221554 102 137 0.0 7.0 0.00 0.00 0.00 36 1013.6